Year,Month,Day,Hour,Minute,Value (Times are PST for temperature in C)
2018,09,24,00,00,10.50
2018,09,24,00,01,10.50
2018,09,24,00,02,10.40
2018,09,24,00,03,10.40
2018,09,24,00,04,10.40
2018,09,24,00,05,10.40
2018,09,24,00,06,10.40
2018,09,24,00,07,10.40
2018,09,24,00,08,10.40
2018,09,24,00,09,10.40
2018,09,24,00,10,10.40
2018,09,24,00,11,10.40
2018,09,24,00,12,10.40
2018,09,24,00,13,10.40
2018,09,24,00,14,10.40
2018,09,24,00,15,10.40
2018,09,24,00,16,10.30
2018,09,24,00,17,10.30
2018,09,24,00,18,10.30
2018,09,24,00,19,10.30
2018,09,24,00,20,10.30
2018,09,24,00,21,10.30
2018,09,24,00,22,10.30
2018,09,24,00,23,10.30
2018,09,24,00,24,10.30
2018,09,24,00,25,10.20
2018,09,24,00,26,10.20
2018,09,24,00,27,10.20
2018,09,24,00,28,10.20
2018,09,24,00,29,10.20
2018,09,24,00,30,10.20
2018,09,24,00,31,10.20
2018,09,24,00,32,10.10
2018,09,24,00,33,10.10
2018,09,24,00,34,10.10
2018,09,24,00,35,10.10
2018,09,24,00,36,10.00
2018,09,24,00,37,10.00
2018,09,24,00,38,10.00
2018,09,24,00,39,10.00
2018,09,24,00,40,9.90
2018,09,24,00,41,9.90
2018,09,24,00,42,9.90
2018,09,24,00,43,9.90
2018,09,24,00,44,9.90
2018,09,24,00,45,9.90
2018,09,24,00,46,9.80
2018,09,24,00,47,9.80
2018,09,24,00,48,9.80
2018,09,24,00,49,9.80
2018,09,24,00,50,9.80
2018,09,24,00,51,9.80
2018,09,24,00,52,9.80
2018,09,24,00,53,9.80
2018,09,24,00,54,9.80
2018,09,24,00,55,9.80
2018,09,24,00,56,9.80
2018,09,24,00,57,9.80
2018,09,24,00,58,9.70
2018,09,24,00,59,9.70
2018,09,24,01,00,9.70
2018,09,24,01,01,9.70
2018,09,24,01,02,9.70
2018,09,24,01,03,9.70
2018,09,24,01,04,9.70
2018,09,24,01,05,9.70
2018,09,24,01,06,9.70
2018,09,24,01,07,9.70
2018,09,24,01,08,9.60
2018,09,24,01,09,9.60
2018,09,24,01,10,9.60
2018,09,24,01,11,9.60
2018,09,24,01,12,9.60
2018,09,24,01,13,9.60
2018,09,24,01,14,9.60
2018,09,24,01,15,9.60
2018,09,24,01,16,9.60
2018,09,24,01,17,9.60
2018,09,24,01,18,9.50
2018,09,24,01,19,9.50
2018,09,24,01,20,9.50
2018,09,24,01,21,9.50
2018,09,24,01,22,9.40
2018,09,24,01,23,9.40
2018,09,24,01,24,9.40
2018,09,24,01,25,9.40
2018,09,24,01,26,9.40
2018,09,24,01,27,9.40
2018,09,24,01,28,9.30
2018,09,24,01,29,9.30
2018,09,24,01,30,9.30
2018,09,24,01,31,9.30
2018,09,24,01,32,9.30
2018,09,24,01,33,9.30
2018,09,24,01,34,9.30
2018,09,24,01,35,9.20
2018,09,24,01,36,9.20
2018,09,24,01,37,9.20
2018,09,24,01,38,9.20
2018,09,24,01,39,9.20
2018,09,24,01,40,9.20
2018,09,24,01,41,9.20
2018,09,24,01,42,9.20
2018,09,24,01,43,9.10
2018,09,24,01,44,9.10
2018,09,24,01,45,9.10
2018,09,24,01,46,9.10
2018,09,24,01,47,9.10
2018,09,24,01,48,9.10
2018,09,24,01,49,9.00
2018,09,24,01,50,9.00
2018,09,24,01,51,9.00
2018,09,24,01,52,9.00
2018,09,24,01,53,9.00
2018,09,24,01,54,8.90
2018,09,24,01,55,8.90
2018,09,24,01,56,8.90
2018,09,24,01,57,8.90
2018,09,24,01,58,8.90
2018,09,24,01,59,8.90
2018,09,24,02,00,8.80
2018,09,24,02,01,8.80
2018,09,24,02,02,8.80
2018,09,24,02,03,8.80
2018,09,24,02,04,8.80
2018,09,24,02,05,8.80
2018,09,24,02,06,8.70
2018,09,24,02,07,8.70
2018,09,24,02,08,8.70
2018,09,24,02,09,8.70
2018,09,24,02,10,8.70
2018,09,24,02,11,8.70
2018,09,24,02,12,8.70
2018,09,24,02,13,8.70
2018,09,24,02,14,8.70
2018,09,24,02,15,8.60
2018,09,24,02,16,8.60
2018,09,24,02,17,8.60
2018,09,24,02,18,8.60
2018,09,24,02,19,8.60
2018,09,24,02,20,8.60
2018,09,24,02,21,8.50
2018,09,24,02,22,8.50
2018,09,24,02,23,8.50
2018,09,24,02,24,8.50
2018,09,24,02,25,8.40
2018,09,24,02,26,8.40
2018,09,24,02,27,8.40
2018,09,24,02,28,8.40
2018,09,24,02,29,8.40
2018,09,24,02,30,8.40
2018,09,24,02,31,8.40
2018,09,24,02,32,8.40
2018,09,24,02,33,8.40
2018,09,24,02,34,8.40
2018,09,24,02,35,8.40
2018,09,24,02,36,8.30
2018,09,24,02,37,8.30
2018,09,24,02,38,8.30
2018,09,24,02,39,8.30
2018,09,24,02,40,8.30
2018,09,24,02,41,8.30
2018,09,24,02,42,8.30
2018,09,24,02,43,8.20
2018,09,24,02,44,8.20
2018,09,24,02,45,8.20
2018,09,24,02,46,8.20
2018,09,24,02,47,8.20
2018,09,24,02,48,8.20
2018,09,24,02,49,8.20
2018,09,24,02,50,8.20
2018,09,24,02,51,8.20
2018,09,24,02,52,8.20
2018,09,24,02,53,8.10
2018,09,24,02,54,8.10
2018,09,24,02,55,8.10
2018,09,24,02,56,8.10
2018,09,24,02,57,8.10
2018,09,24,02,58,8.10
2018,09,24,02,59,8.10
2018,09,24,03,00,8.10
2018,09,24,03,01,8.10
2018,09,24,03,02,8.10
2018,09,24,03,03,8.10
2018,09,24,03,04,8.10
2018,09,24,03,05,8.10
2018,09,24,03,06,8.10
2018,09,24,03,07,8.10
2018,09,24,03,08,8.10
2018,09,24,03,09,8.10
2018,09,24,03,10,8.10
2018,09,24,03,11,8.00
2018,09,24,03,12,8.00
2018,09,24,03,13,8.00
2018,09,24,03,14,8.00
2018,09,24,03,15,8.00
2018,09,24,03,16,8.00
2018,09,24,03,17,8.00
2018,09,24,03,18,8.00
2018,09,24,03,19,7.90
2018,09,24,03,20,7.90
2018,09,24,03,21,7.90
2018,09,24,03,22,7.90
2018,09,24,03,23,7.90
2018,09,24,03,24,7.90
2018,09,24,03,25,7.90
2018,09,24,03,26,7.90
2018,09,24,03,27,7.90
2018,09,24,03,28,7.90
2018,09,24,03,29,7.90
2018,09,24,03,30,7.90
2018,09,24,03,31,7.90
2018,09,24,03,32,7.90
2018,09,24,03,33,7.80
2018,09,24,03,34,7.80
2018,09,24,03,35,7.80
2018,09,24,03,36,7.80
2018,09,24,03,37,7.80
2018,09,24,03,38,7.80
2018,09,24,03,39,7.80
2018,09,24,03,40,7.80
2018,09,24,03,41,7.80
2018,09,24,03,42,7.80
2018,09,24,03,43,7.80
2018,09,24,03,44,7.80
2018,09,24,03,45,7.80
2018,09,24,03,46,7.80
2018,09,24,03,47,7.70
2018,09,24,03,48,7.70
2018,09,24,03,49,7.70
2018,09,24,03,50,7.70
2018,09,24,03,51,7.70
2018,09,24,03,52,7.70
2018,09,24,03,53,7.70
2018,09,24,03,54,7.60
2018,09,24,03,55,7.60
2018,09,24,03,56,7.60
2018,09,24,03,57,7.60
2018,09,24,03,58,7.60
2018,09,24,03,59,7.60
2018,09,24,04,00,7.60
2018,09,24,04,01,7.60
2018,09,24,04,02,7.60
2018,09,24,04,03,7.60
2018,09,24,04,04,7.60
2018,09,24,04,05,7.60
2018,09,24,04,06,7.60
2018,09,24,04,07,7.60
2018,09,24,04,08,7.60
2018,09,24,04,09,7.60
2018,09,24,04,10,7.70
2018,09,24,04,11,7.70
2018,09,24,04,12,7.70
2018,09,24,04,13,7.70
2018,09,24,04,14,7.70
2018,09,24,04,15,7.70
2018,09,24,04,16,7.70
2018,09,24,04,17,7.80
2018,09,24,04,18,7.80
2018,09,24,04,19,7.80
2018,09,24,04,20,7.80
2018,09,24,04,21,7.80
2018,09,24,04,22,7.90
2018,09,24,04,23,7.90
2018,09,24,04,24,7.90
2018,09,24,04,25,7.90
2018,09,24,04,26,7.90
2018,09,24,04,27,7.90
2018,09,24,04,28,7.90
2018,09,24,04,29,7.90
2018,09,24,04,30,8.00
2018,09,24,04,31,8.00
2018,09,24,04,32,8.00
2018,09,24,04,33,8.00
2018,09,24,04,34,8.00
2018,09,24,04,35,8.00
2018,09,24,04,36,8.10
2018,09,24,04,37,8.10
2018,09,24,04,38,8.10
2018,09,24,04,39,8.10
2018,09,24,04,40,8.10
2018,09,24,04,41,8.20
2018,09,24,04,42,8.20
2018,09,24,04,43,8.20
2018,09,24,04,44,8.20
2018,09,24,04,45,8.20
2018,09,24,04,46,8.20
2018,09,24,04,47,8.20
2018,09,24,04,48,8.30
2018,09,24,04,49,8.30
2018,09,24,04,50,8.30
2018,09,24,04,51,8.30
2018,09,24,04,52,8.30
2018,09,24,04,53,8.30
2018,09,24,04,54,8.40
2018,09,24,04,55,8.40
2018,09,24,04,56,8.40
2018,09,24,04,57,8.40
2018,09,24,04,58,8.40
2018,09,24,04,59,8.40
2018,09,24,05,00,8.40
2018,09,24,05,01,8.40
2018,09,24,05,02,8.40
2018,09,24,05,03,8.50
2018,09,24,05,04,8.50
2018,09,24,05,05,8.50
2018,09,24,05,06,8.50
2018,09,24,05,07,8.50
2018,09,24,05,08,8.60
2018,09,24,05,09,8.60
2018,09,24,05,10,8.60
2018,09,24,05,11,8.60
2018,09,24,05,12,8.60
2018,09,24,05,13,8.60
2018,09,24,05,14,8.60
2018,09,24,05,15,8.60
2018,09,24,05,16,8.60
2018,09,24,05,17,8.60
2018,09,24,05,18,8.60
2018,09,24,05,19,8.60
2018,09,24,05,20,8.70
2018,09,24,05,21,8.70
2018,09,24,05,22,8.70
2018,09,24,05,23,8.70
2018,09,24,05,24,8.70
2018,09,24,05,25,8.70
2018,09,24,05,26,8.70
2018,09,24,05,27,8.70
2018,09,24,05,28,8.70
2018,09,24,05,29,8.80
2018,09,24,05,30,8.80
2018,09,24,05,31,8.80
2018,09,24,05,32,8.80
2018,09,24,05,33,8.80
2018,09,24,05,34,8.80
2018,09,24,05,35,8.80
2018,09,24,05,36,8.80
2018,09,24,05,37,8.90
2018,09,24,05,38,8.90
2018,09,24,05,39,8.90
2018,09,24,05,40,8.90
2018,09,24,05,41,8.90
2018,09,24,05,42,8.90
2018,09,24,05,43,9.00
2018,09,24,05,44,9.00
2018,09,24,05,45,9.00
2018,09,24,05,46,9.00
2018,09,24,05,47,9.10
2018,09,24,05,48,9.10
2018,09,24,05,49,9.10
2018,09,24,05,50,9.10
2018,09,24,05,51,9.10
2018,09,24,05,52,9.10
2018,09,24,05,53,9.10
2018,09,24,05,54,9.10
2018,09,24,05,55,9.10
2018,09,24,05,56,9.10
2018,09,24,05,57,9.10
2018,09,24,05,58,9.10
2018,09,24,05,59,9.10
2018,09,24,06,00,9.10
2018,09,24,06,01,9.10
2018,09,24,06,02,9.10
2018,09,24,06,03,9.20
2018,09,24,06,04,9.20
2018,09,24,06,05,9.20
2018,09,24,06,06,9.20
2018,09,24,06,07,9.20
2018,09,24,06,08,9.20
2018,09,24,06,09,9.20
2018,09,24,06,10,9.20
2018,09,24,06,11,9.20
2018,09,24,06,12,9.20
2018,09,24,06,13,9.20
2018,09,24,06,14,9.20
2018,09,24,06,15,9.20
2018,09,24,06,16,9.20
2018,09,24,06,17,9.20
2018,09,24,06,18,9.20
2018,09,24,06,19,9.30
2018,09,24,06,20,9.30
2018,09,24,06,21,9.30
2018,09,24,06,22,9.30
2018,09,24,06,23,9.30
2018,09,24,06,24,9.30
2018,09,24,06,25,9.30
2018,09,24,06,26,9.30
2018,09,24,06,27,9.30
2018,09,24,06,28,9.30
2018,09,24,06,29,9.30
2018,09,24,06,30,9.30
2018,09,24,06,31,9.30
2018,09,24,06,32,9.30
2018,09,24,06,33,9.30
2018,09,24,06,34,9.30
2018,09,24,06,35,9.40
2018,09,24,06,36,9.40
2018,09,24,06,37,9.40
2018,09,24,06,38,9.40
2018,09,24,06,39,9.40
2018,09,24,06,40,9.40
2018,09,24,06,41,9.40
2018,09,24,06,42,9.40
2018,09,24,06,43,9.40
2018,09,24,06,44,9.40
2018,09,24,06,45,9.40
2018,09,24,06,46,9.40
2018,09,24,06,47,9.40
2018,09,24,06,48,9.40
2018,09,24,06,49,9.50
2018,09,24,06,50,9.50
2018,09,24,06,51,9.50
2018,09,24,06,52,9.50
2018,09,24,06,53,9.50
2018,09,24,06,54,9.50
2018,09,24,06,55,9.50
2018,09,24,06,56,9.50
2018,09,24,06,57,9.60
2018,09,24,06,58,9.60
2018,09,24,06,59,9.60
2018,09,24,07,00,9.60
2018,09,24,07,01,9.60
2018,09,24,07,02,9.60
2018,09,24,07,03,9.60
2018,09,24,07,04,9.60
2018,09,24,07,05,9.60
2018,09,24,07,06,9.60
2018,09,24,07,07,9.60
2018,09,24,07,08,9.60
2018,09,24,07,09,9.60
2018,09,24,07,10,9.60
2018,09,24,07,11,9.60
2018,09,24,07,12,9.60
2018,09,24,07,13,9.60
2018,09,24,07,14,9.60
2018,09,24,07,15,9.60
2018,09,24,07,16,9.60
2018,09,24,07,17,9.60
2018,09,24,07,18,9.60
2018,09,24,07,19,9.70
2018,09,24,07,20,9.70
2018,09,24,07,21,9.70
2018,09,24,07,22,9.70
2018,09,24,07,23,9.70
2018,09,24,07,24,9.70
2018,09,24,07,25,9.70
2018,09,24,07,26,9.70
2018,09,24,07,27,9.70
2018,09,24,07,28,9.70
2018,09,24,07,29,9.80
2018,09,24,07,30,9.80
2018,09,24,07,31,9.80
2018,09,24,07,32,9.80
2018,09,24,07,33,9.80
2018,09,24,07,34,9.80
2018,09,24,07,35,9.80
2018,09,24,07,36,9.80
2018,09,24,07,37,9.80
2018,09,24,07,38,9.80
2018,09,24,07,39,9.80
2018,09,24,07,40,9.80
2018,09,24,07,41,9.80
2018,09,24,07,42,9.80
2018,09,24,07,43,9.80
2018,09,24,07,44,9.80
2018,09,24,07,45,9.80
2018,09,24,07,46,9.80
2018,09,24,07,47,9.80
2018,09,24,07,48,9.90
2018,09,24,07,49,9.90
2018,09,24,07,50,9.90
2018,09,24,07,51,9.90
2018,09,24,07,52,9.90
2018,09,24,07,53,9.90
2018,09,24,07,54,9.90
2018,09,24,07,55,9.90
2018,09,24,07,56,10.00
2018,09,24,07,57,10.00
2018,09,24,07,58,10.00
2018,09,24,07,59,10.00
2018,09,24,08,00,10.00
2018,09,24,08,01,10.00
2018,09,24,08,02,10.00
2018,09,24,08,03,10.10
2018,09,24,08,04,10.10
2018,09,24,08,05,10.10
2018,09,24,08,06,10.10
2018,09,24,08,07,10.10
2018,09,24,08,08,10.10
2018,09,24,08,09,10.10
2018,09,24,08,10,10.20
2018,09,24,08,11,10.20
2018,09,24,08,12,10.20
2018,09,24,08,13,10.20
2018,09,24,08,14,10.20
2018,09,24,08,15,10.20
2018,09,24,08,16,10.20
2018,09,24,08,17,10.20
2018,09,24,08,18,10.20
2018,09,24,08,19,10.20
2018,09,24,08,20,10.20
2018,09,24,08,21,10.20
2018,09,24,08,22,10.30
2018,09,24,08,23,10.30
2018,09,24,08,24,10.30
2018,09,24,08,25,10.30
2018,09,24,08,26,10.30
2018,09,24,08,27,10.30
2018,09,24,08,28,10.30
2018,09,24,08,29,10.30
2018,09,24,08,30,10.30
2018,09,24,08,31,10.40
2018,09,24,08,32,10.40
2018,09,24,08,33,10.40
2018,09,24,08,34,10.40
2018,09,24,08,35,10.40
2018,09,24,08,36,10.40
2018,09,24,08,37,10.50
2018,09,24,08,38,10.50
2018,09,24,08,39,10.50
2018,09,24,08,40,10.50
2018,09,24,08,41,10.60
2018,09,24,08,42,10.60
2018,09,24,08,43,10.60
2018,09,24,08,44,10.60
2018,09,24,08,45,10.70
2018,09,24,08,46,10.70
2018,09,24,08,47,10.70
2018,09,24,08,48,10.70
2018,09,24,08,49,10.70
2018,09,24,08,50,10.70
2018,09,24,08,51,10.70
2018,09,24,08,52,10.80
2018,09,24,08,53,10.80
2018,09,24,08,54,10.80
2018,09,24,08,55,10.80
2018,09,24,08,56,10.90
2018,09,24,08,57,10.90
2018,09,24,08,58,10.90
2018,09,24,08,59,10.90
2018,09,24,09,00,11.00
2018,09,24,09,01,11.00
2018,09,24,09,02,11.00
2018,09,24,09,03,11.10
2018,09,24,09,04,11.10
2018,09,24,09,05,11.10
2018,09,24,09,06,11.10
2018,09,24,09,07,11.20
2018,09,24,09,08,11.20
2018,09,24,09,09,11.20
2018,09,24,09,10,11.20
2018,09,24,09,11,11.30
2018,09,24,09,12,11.30
2018,09,24,09,13,11.30
2018,09,24,09,14,11.30
2018,09,24,09,15,11.30
2018,09,24,09,16,11.30
2018,09,24,09,17,11.40
2018,09,24,09,18,11.40
2018,09,24,09,19,11.40
2018,09,24,09,20,11.40
2018,09,24,09,21,11.40
2018,09,24,09,22,11.40
2018,09,24,09,23,11.40
2018,09,24,09,24,11.40
2018,09,24,09,25,11.40
2018,09,24,09,26,11.40
2018,09,24,09,27,11.40
2018,09,24,09,28,11.40
2018,09,24,09,29,11.40
2018,09,24,09,30,11.40
2018,09,24,09,31,11.40
2018,09,24,09,32,11.40
2018,09,24,09,33,11.40
2018,09,24,09,34,11.40
2018,09,24,09,35,11.40
2018,09,24,09,36,11.40
2018,09,24,09,37,11.50
2018,09,24,09,38,11.50
2018,09,24,09,39,11.50
2018,09,24,09,40,11.50
2018,09,24,09,41,11.50
2018,09,24,09,42,11.50
2018,09,24,09,43,11.50
2018,09,24,09,44,11.60
2018,09,24,09,45,11.60
2018,09,24,09,46,11.60
2018,09,24,09,47,11.60
2018,09,24,09,48,11.60
2018,09,24,09,49,11.60
2018,09,24,09,50,11.60
2018,09,24,09,51,11.70
2018,09,24,09,52,11.70
2018,09,24,09,53,11.70
2018,09,24,09,54,11.70
2018,09,24,09,55,11.80
2018,09,24,09,56,11.80
2018,09,24,09,57,11.80
2018,09,24,09,58,11.90
2018,09,24,09,59,11.90
2018,09,24,10,00,11.90
2018,09,24,10,01,12.00
2018,09,24,10,02,12.00
2018,09,24,10,03,12.10
2018,09,24,10,04,12.10
2018,09,24,10,05,12.20
2018,09,24,10,06,12.20
2018,09,24,10,07,12.20
2018,09,24,10,08,12.30
2018,09,24,10,09,12.30
2018,09,24,10,10,12.40
2018,09,24,10,11,12.40
2018,09,24,10,12,12.50
2018,09,24,10,13,12.50
2018,09,24,10,14,12.50
2018,09,24,10,15,12.60
2018,09,24,10,16,12.60
2018,09,24,10,17,12.60
2018,09,24,10,18,12.70
2018,09,24,10,19,12.70
2018,09,24,10,20,12.80
2018,09,24,10,21,12.80
2018,09,24,10,22,12.80
2018,09,24,10,23,12.90
2018,09,24,10,24,12.90
2018,09,24,10,25,13.00
2018,09,24,10,26,13.10
2018,09,24,10,27,13.10
2018,09,24,10,28,13.20
2018,09,24,10,29,13.20
2018,09,24,10,30,13.20
2018,09,24,10,31,13.30
2018,09,24,10,32,13.30
2018,09,24,10,33,13.30
2018,09,24,10,34,13.40
2018,09,24,10,35,13.40
2018,09,24,10,36,13.50
2018,09,24,10,37,13.50
2018,09,24,10,38,13.50
2018,09,24,10,39,13.60
2018,09,24,10,40,13.60
2018,09,24,10,41,13.60
2018,09,24,10,42,13.60
2018,09,24,10,43,13.60
2018,09,24,10,44,13.60
2018,09,24,10,45,13.60
2018,09,24,10,46,13.60
2018,09,24,10,47,13.60
2018,09,24,10,48,13.70
2018,09,24,10,49,13.70
2018,09,24,10,50,13.70
2018,09,24,10,51,13.70
2018,09,24,10,52,13.70
2018,09,24,10,53,13.70
2018,09,24,10,54,13.70
2018,09,24,10,55,13.70
2018,09,24,10,56,13.70
2018,09,24,10,57,13.70
2018,09,24,10,58,13.70
2018,09,24,10,59,13.70
2018,09,24,11,00,13.70
2018,09,24,11,01,13.70
2018,09,24,11,02,13.70
2018,09,24,11,03,13.70
2018,09,24,11,04,13.80
2018,09,24,11,05,13.80
2018,09,24,11,06,13.80
2018,09,24,11,07,13.80
2018,09,24,11,08,13.80
2018,09,24,11,09,13.80
2018,09,24,11,10,13.80
2018,09,24,11,11,13.90
2018,09,24,11,12,13.90
2018,09,24,11,13,13.90
2018,09,24,11,14,13.90
2018,09,24,11,15,13.90
2018,09,24,11,16,13.90
2018,09,24,11,17,13.90
2018,09,24,11,18,13.90
2018,09,24,11,19,13.90
2018,09,24,11,20,13.90
2018,09,24,11,21,13.90
2018,09,24,11,22,14.00
2018,09,24,11,23,14.00
2018,09,24,11,24,14.00
2018,09,24,11,25,14.10
2018,09,24,11,26,14.10
2018,09,24,11,27,14.10
2018,09,24,11,28,14.10
2018,09,24,11,29,14.20
2018,09,24,11,30,14.20
2018,09,24,11,31,14.20
2018,09,24,11,32,14.20
2018,09,24,11,33,14.20
2018,09,24,11,34,14.30
2018,09,24,11,35,14.30
2018,09,24,11,36,14.30
2018,09,24,11,37,14.30
2018,09,24,11,38,14.30
2018,09,24,11,39,14.40
2018,09,24,11,40,14.40
2018,09,24,11,41,14.40
2018,09,24,11,42,14.40
2018,09,24,11,43,14.40
2018,09,24,11,44,14.40
2018,09,24,11,45,14.50
2018,09,24,11,46,14.50
2018,09,24,11,47,14.50
2018,09,24,11,48,14.50
2018,09,24,11,49,14.40
2018,09,24,11,50,14.50
2018,09,24,11,51,14.50
2018,09,24,11,52,14.50
2018,09,24,11,53,14.50
2018,09,24,11,54,14.60
2018,09,24,11,55,14.60
2018,09,24,11,56,14.60
2018,09,24,11,57,14.60
2018,09,24,11,58,14.60
2018,09,24,11,59,14.70
2018,09,24,12,00,14.70
2018,09,24,12,01,14.70
2018,09,24,12,02,14.70
2018,09,24,12,03,14.80
2018,09,24,12,04,14.80
2018,09,24,12,05,14.90
2018,09,24,12,06,14.90
2018,09,24,12,07,14.90
2018,09,24,12,08,14.90
2018,09,24,12,09,14.90
2018,09,24,12,10,14.90
2018,09,24,12,11,15.00
2018,09,24,12,12,15.00
2018,09,24,12,13,15.00
2018,09,24,12,14,15.00
2018,09,24,12,15,15.00
2018,09,24,12,16,15.00
2018,09,24,12,17,15.00
2018,09,24,12,18,15.00
2018,09,24,12,19,15.00
2018,09,24,12,20,15.00
2018,09,24,12,21,15.00
2018,09,24,12,22,15.10
2018,09,24,12,23,15.10
2018,09,24,12,24,15.10
2018,09,24,12,25,15.10
2018,09,24,12,26,15.00
2018,09,24,12,27,15.00
2018,09,24,12,28,15.00
2018,09,24,12,29,15.00
2018,09,24,12,30,15.00
2018,09,24,12,31,15.00
2018,09,24,12,32,15.10
2018,09,24,12,33,15.10
2018,09,24,12,34,15.10
2018,09,24,12,35,15.10
2018,09,24,12,36,15.10
2018,09,24,12,37,15.10
2018,09,24,12,38,15.10
2018,09,24,12,39,15.10
2018,09,24,12,40,15.10
2018,09,24,12,41,15.10
2018,09,24,12,42,15.20
2018,09,24,12,43,15.20
2018,09,24,12,44,15.20
2018,09,24,12,45,15.20
2018,09,24,12,46,15.20
2018,09,24,12,47,15.20
2018,09,24,12,48,15.20
2018,09,24,12,49,15.20
2018,09,24,12,50,15.20
2018,09,24,12,51,15.20
2018,09,24,12,52,15.20
2018,09,24,12,53,15.20
2018,09,24,12,54,15.20
2018,09,24,12,55,15.10
2018,09,24,12,56,15.10
2018,09,24,12,57,15.10
2018,09,24,12,58,15.00
2018,09,24,12,59,15.00
2018,09,24,13,00,14.90
2018,09,24,13,01,14.90
2018,09,24,13,02,14.80
2018,09,24,13,03,14.80
2018,09,24,13,04,14.80
2018,09,24,13,05,14.80
2018,09,24,13,06,14.80
2018,09,24,13,07,14.80
2018,09,24,13,08,14.80
2018,09,24,13,09,14.80
2018,09,24,13,10,14.80
2018,09,24,13,11,14.80
2018,09,24,13,12,14.80
2018,09,24,13,13,14.80
2018,09,24,13,14,14.80
2018,09,24,13,15,14.80
2018,09,24,13,16,14.80
2018,09,24,13,17,14.80
2018,09,24,13,18,14.80
2018,09,24,13,19,14.80
2018,09,24,13,20,14.80
2018,09,24,13,21,14.80
2018,09,24,13,22,14.80
2018,09,24,13,23,14.80
2018,09,24,13,24,14.80
2018,09,24,13,25,14.80
2018,09,24,13,26,14.80
2018,09,24,13,27,14.80
2018,09,24,13,28,14.90
2018,09,24,13,29,14.90
2018,09,24,13,30,14.90
2018,09,24,13,31,14.90
2018,09,24,13,32,15.00
2018,09,24,13,33,15.00
2018,09,24,13,34,15.00
2018,09,24,13,35,15.00
2018,09,24,13,36,15.10
2018,09,24,13,37,15.10
2018,09,24,13,38,15.10
2018,09,24,13,39,15.10
2018,09,24,13,40,15.00
2018,09,24,13,41,15.00
2018,09,24,13,42,15.00
2018,09,24,13,43,15.00
2018,09,24,13,44,15.00
2018,09,24,13,45,14.90
2018,09,24,13,46,14.90
2018,09,24,13,47,14.90
2018,09,24,13,48,15.00
2018,09,24,13,49,15.00
2018,09,24,13,50,15.00
2018,09,24,13,51,15.00
2018,09,24,13,52,15.00
2018,09,24,13,53,15.10
2018,09,24,13,54,15.10
2018,09,24,13,55,15.10
2018,09,24,13,56,15.10
2018,09,24,13,57,15.10
2018,09,24,13,58,15.10
2018,09,24,13,59,15.10
2018,09,24,14,00,15.10
2018,09,24,14,01,15.10
2018,09,24,14,02,15.10
2018,09,24,14,03,15.10
2018,09,24,14,04,15.10
2018,09,24,14,05,15.10
2018,09,24,14,06,15.10
2018,09,24,14,07,15.10
2018,09,24,14,08,15.10
2018,09,24,14,09,15.10
2018,09,24,14,10,15.10
2018,09,24,14,11,15.10
2018,09,24,14,12,15.10
2018,09,24,14,13,15.20
2018,09,24,14,14,15.20
2018,09,24,14,15,15.10
2018,09,24,14,16,15.10
2018,09,24,14,17,15.10
2018,09,24,14,18,15.10
2018,09,24,14,19,15.10
2018,09,24,14,20,15.10
2018,09,24,14,21,15.10
2018,09,24,14,22,15.10
2018,09,24,14,23,15.10
2018,09,24,14,24,15.10
2018,09,24,14,25,15.10
2018,09,24,14,26,15.10
2018,09,24,14,27,15.10
2018,09,24,14,28,15.10
2018,09,24,14,29,15.10
2018,09,24,14,30,15.10
2018,09,24,14,31,15.10
2018,09,24,14,32,15.10
2018,09,24,14,33,15.10
2018,09,24,14,34,15.10
2018,09,24,14,35,15.10
2018,09,24,14,36,15.10
2018,09,24,14,37,15.20
2018,09,24,14,38,15.20
2018,09,24,14,39,15.20
2018,09,24,14,40,15.20
2018,09,24,14,41,15.20
2018,09,24,14,42,15.20
2018,09,24,14,43,15.20
2018,09,24,14,44,15.20
2018,09,24,14,45,15.30
2018,09,24,14,46,15.30
2018,09,24,14,47,15.30
2018,09,24,14,48,15.40
2018,09,24,14,49,15.40
2018,09,24,14,50,15.40
2018,09,24,14,51,15.40
2018,09,24,14,52,15.40
2018,09,24,14,53,15.40
2018,09,24,14,54,15.40
2018,09,24,14,55,15.40
2018,09,24,14,56,15.40
2018,09,24,14,57,15.40
2018,09,24,14,58,15.40
2018,09,24,14,59,15.40
2018,09,24,15,00,15.40
2018,09,24,15,01,15.30
2018,09,24,15,02,15.30
2018,09,24,15,03,15.40
2018,09,24,15,04,15.40
2018,09,24,15,05,15.40
2018,09,24,15,06,15.40
2018,09,24,15,07,15.40
2018,09,24,15,08,15.40
2018,09,24,15,09,15.50
2018,09,24,15,10,15.50
2018,09,24,15,11,15.50
2018,09,24,15,12,15.50
2018,09,24,15,13,15.50
2018,09,24,15,14,15.50
2018,09,24,15,15,15.60
2018,09,24,15,16,15.60
2018,09,24,15,17,15.60
2018,09,24,15,18,15.60
2018,09,24,15,19,15.60
2018,09,24,15,20,15.60
2018,09,24,15,21,15.60
2018,09,24,15,22,15.70
2018,09,24,15,23,15.70
2018,09,24,15,24,15.70
2018,09,24,15,25,15.70
2018,09,24,15,26,15.70
2018,09,24,15,27,15.70
2018,09,24,15,28,15.70
2018,09,24,15,29,15.70
2018,09,24,15,30,15.70
2018,09,24,15,31,15.70
2018,09,24,15,32,15.70
2018,09,24,15,33,15.70
2018,09,24,15,34,15.70
2018,09,24,15,35,15.70
2018,09,24,15,36,15.70
2018,09,24,15,37,15.70
2018,09,24,15,38,15.70
2018,09,24,15,39,15.70
2018,09,24,15,40,15.70
2018,09,24,15,41,15.60
2018,09,24,15,42,15.60
2018,09,24,15,43,15.60
2018,09,24,15,44,15.60
2018,09,24,15,45,15.60
2018,09,24,15,46,15.60
2018,09,24,15,47,15.60
2018,09,24,15,48,15.70
2018,09,24,15,49,15.70
2018,09,24,15,50,15.70
2018,09,24,15,51,15.70
2018,09,24,15,52,15.70
2018,09,24,15,53,15.70
2018,09,24,15,54,15.70
2018,09,24,15,55,15.60
2018,09,24,15,56,15.60
2018,09,24,15,57,15.60
2018,09,24,15,58,15.60
2018,09,24,15,59,15.60
2018,09,24,16,00,15.60
2018,09,24,16,01,15.60
2018,09,24,16,02,15.60
2018,09,24,16,03,15.60
2018,09,24,16,04,15.60
2018,09,24,16,05,15.60
2018,09,24,16,06,15.60
2018,09,24,16,07,15.70
2018,09,24,16,08,15.70
2018,09,24,16,09,15.80
2018,09,24,16,10,15.80
2018,09,24,16,11,15.80
2018,09,24,16,12,15.80
2018,09,24,16,13,15.80
2018,09,24,16,14,15.90
2018,09,24,16,15,15.90
2018,09,24,16,16,15.90
2018,09,24,16,17,15.80
2018,09,24,16,18,15.90
2018,09,24,16,19,15.80
2018,09,24,16,20,15.80
2018,09,24,16,21,15.80
2018,09,24,16,22,15.80
2018,09,24,16,23,15.80
2018,09,24,16,24,15.80
2018,09,24,16,25,15.80
2018,09,24,16,26,15.80
2018,09,24,16,27,15.80
2018,09,24,16,28,15.80
2018,09,24,16,29,15.80
2018,09,24,16,30,15.80
2018,09,24,16,31,15.80
2018,09,24,16,32,15.80
2018,09,24,16,33,15.80
2018,09,24,16,34,15.80
2018,09,24,16,35,15.80
2018,09,24,16,36,15.80
2018,09,24,16,37,15.80
2018,09,24,16,38,15.80
2018,09,24,16,39,15.80
2018,09,24,16,40,15.80
2018,09,24,16,41,15.90
2018,09,24,16,42,15.90
2018,09,24,16,43,15.90
2018,09,24,16,44,15.90
2018,09,24,16,45,15.90
2018,09,24,16,46,15.80
2018,09,24,16,47,15.80
2018,09,24,16,48,15.80
2018,09,24,16,49,15.80
2018,09,24,16,50,15.80
2018,09,24,16,51,15.80
2018,09,24,16,52,15.80
2018,09,24,16,53,15.80
2018,09,24,16,54,15.80
2018,09,24,16,55,15.80
2018,09,24,16,56,15.80
2018,09,24,16,57,15.80
2018,09,24,16,58,15.80
2018,09,24,16,59,15.70
2018,09,24,17,00,15.70
2018,09,24,17,01,15.70
2018,09,24,17,02,15.70
2018,09,24,17,03,15.70
2018,09,24,17,04,15.70
2018,09,24,17,05,15.70
2018,09,24,17,06,15.70
2018,09,24,17,07,15.70
2018,09,24,17,08,15.70
2018,09,24,17,09,15.70
2018,09,24,17,10,15.70
2018,09,24,17,11,15.70
2018,09,24,17,12,15.70
2018,09,24,17,13,15.80
2018,09,24,17,14,15.80
2018,09,24,17,15,15.80
2018,09,24,17,16,15.80
2018,09,24,17,17,15.80
2018,09,24,17,18,15.80
2018,09,24,17,19,15.80
2018,09,24,17,20,15.80
2018,09,24,17,21,15.80
2018,09,24,17,22,15.80
2018,09,24,17,23,15.80
2018,09,24,17,24,15.80
2018,09,24,17,25,15.80
2018,09,24,17,26,15.80
2018,09,24,17,27,15.80
2018,09,24,17,28,15.80
2018,09,24,17,29,15.80
2018,09,24,17,30,15.80
2018,09,24,17,31,15.80
2018,09,24,17,32,15.80
2018,09,24,17,33,15.80
2018,09,24,17,34,15.80
2018,09,24,17,35,15.80
2018,09,24,17,36,15.80
2018,09,24,17,37,15.80
2018,09,24,17,38,15.80